Location: David Mid Texas Observatory
(30.9664°N, 96.2113°W)
Time: 23:23:58
(UTC-06:00)

Tiangong 2 - Visible Passes

Search period start: 23 November 2017 00:00
Search period end: 03 December 2017 00:00
Orbit: 386 x 392 km, 42.8° (Epoch: 23 November)

Date Brightness Start Highest point End Pass type
(mag) Time Alt. Az. Time Alt. Az. Time Alt. Az.
24 Nov 4.3 05:36:26 10° SSE 05:37:57 13° SE 05:39:27 10° ESE visible
25 Nov 1.6 06:13:09 10° SW 06:16:17 61° SE 06:19:27 10° ENE visible
26 Nov 2.9 05:17:18 24° S 05:18:10 28° SE 05:20:58 10° E visible
27 Nov 1.2 05:55:12 28° W 05:56:39 57° NNW 05:59:48 10° NE visible
28 Nov 3.6 05:00:27 20° ENE 05:00:27 20° ENE 05:01:36 10° ENE visible
28 Nov 2.8 06:33:05 10° WNW 06:35:28 19° NNW 06:37:53 10° NNE visible
29 Nov 2.5 05:37:48 26° N 05:37:48 26° N 05:39:55 10° NE visible
30 Nov 3.2 06:14:58 12° NW 06:16:02 14° NNW 06:17:46 10° NNE visible
01 Dec 4.0 05:19:39 11° NNE 05:19:39 11° NNE 05:19:51 10° NNE visible
02 Dec 3.6 05:56:33 11° N 05:56:36 11° N 05:57:33 10° N visible
